KD7CTY Weather Reports


time (UTC)temp
F
wind
direction
speed
knots
gust
knots
rain 1hr
in
rain 24hr
in
rain mn
in
humidity
%
barometer
mb
20260504014321 80 32 1.7 1.7 0.00 0.00 0.00 35 1008.7
20260504013819 80 19 2.6 4.3 0.00 0.00 0.00 34 1008.7
20260504013317 80 40 2.6 2.6 0.00 0.00 0.00 34 1008.6
20260504012813 80 356 3.5 4.3 0.00 0.00 0.00 34 1008.7
20260504012311 80 357 1.7 1.7 0.00 0.00 0.00 34 1009.0
20260504011808 80 42 1.7 1.7 0.00 0.00 0.00 37 1009.1
20260504011304 80 70 1.7 4.3 0.00 0.00 0.00 36 1009.2
20260504010800 80 15 2.6 2.6 0.00 0.00 0.00 35 1009.0
20260504010256 81 12 2.6 4.3 0.00 0.00 0.00 34 1009.0
20260504005753 80 42 4.3 5.2 0.00 0.00 0.00 35 1009.2
20260504005250 80 352 6.1 7.0 0.00 0.00 0.00 34 1009.2
20260504004748 81 27 1.7 2.6 0.00 0.00 0.00 35 1009.0
20260504004245 80 68 2.6 4.3 0.00 0.00 0.00 36 1009.3
20260504003741 81 356 2.6 2.6 0.00 0.00 0.00 35 1009.1
20260504003238 80 25 4.3 6.1 0.00 0.00 0.00 34 1009.3
20260504002735 81 28 2.6 2.6 0.00 0.00 0.00 35 1009.3
20260504002232 81 4 0.9 0.9 0.00 0.00 0.00 40 1009.5
20260504001730 81 28 2.6 4.3 0.00 0.00 0.00 35 1009.5
20260504001226 81 20 2.6 2.6 0.00 0.00 0.00 35 1009.5
20260504000723 81 23 2.6 6.1 0.00 0.00 0.00 36 1009.4
20260504000220 81 18 0.0 0.9 0.00 0.00 0.00 38 1009.6
20260503235718 82 341 1.7 1.7 0.00 0.00 0.00 36 1009.5
20260503235215 81 54 4.3 5.2 0.00 0.00 0.00 35 1009.6
20260503234713 81 13 4.3 5.2 0.00 0.00 0.00 35 1009.6
20260503234211 81 23 3.5 5.2 0.00 0.00 0.00 34 1009.4
20260503233708 81 27 4.3 5.2 0.00 0.00 0.00 36 1009.7
20260503233203 81 36 3.5 4.3 0.00 0.00 0.00 35 1009.8
20260503232700 81 31 4.3 6.1 0.00 0.00 0.00 36 1009.6
20260503232157 81 7 2.6 4.3 0.00 0.00 0.00 35 1009.9
20260503231656 81 19 3.5 5.2 0.00 0.00 0.00 36 1009.8
20260503231151 82 356 3.5 6.1 0.00 0.00 0.00 35 1009.8
20260503230648 82 27 3.5 6.1 0.00 0.00 0.00 35 1009.9
20260503230145 82 31 0.9 1.7 0.00 0.00 0.00 39 1010.0
20260503225643 81 21 3.5 4.3 0.00 0.00 0.00 37 1010.2
20260503225143 81 25 1.7 2.6 0.00 0.00 0.00 37 1010.2
20260503224640 81 8 4.3 5.2 0.00 0.00 0.00 36 1010.2
20260503224138 81 15 1.7 1.7 0.00 0.00 0.00 38 1010.2
20260503223636 82 56 3.5 5.2 0.00 0.00 0.00 36 1010.4
20260503223132 82 15 1.7 4.3 0.00 0.00 0.00 37 1010.3
20260503222629 82 33 0.9 1.7 0.00 0.00 0.00 37 1010.5
20260503222127 82 16 3.5 4.3 0.00 0.00 0.00 37 1010.4
20260503221625 82 353 3.5 5.2 0.00 0.00 0.00 35 1010.7
20260503221122 81 26 2.6 2.6 0.00 0.00 0.00 36 1010.6
20260503220619 81 341 2.6 4.3 0.00 0.00 0.00 37 1010.5
20260503220115 82 17 2.6 2.6 0.00 0.00 0.00 36 1010.7
20260503215613 81 25 4.3 5.2 0.00 0.00 0.00 38 1010.8
20260503215109 81 21 3.5 4.3 0.00 0.00 0.00 37 1010.9
20260503214608 81 7 3.5 5.2 0.00 0.00 0.00 38 1010.9
20260503214104 81 342 3.5 4.3 0.00 0.00 0.00 38 1010.7
20260503213603 81 20 2.6 2.6 0.00 0.00 0.00 37 1010.9
20260503213058 81 46 1.7 1.7 0.00 0.00 0.00 40 1011.0
20260503212556 81 11 4.3 5.2 0.00 0.00 0.00 39 1011.1
20260503212053 81 9 0.9 0.9 0.00 0.00 0.00 39 1011.2
20260503211551 80 17 0.9 1.7 0.00 0.00 0.00 41 1011.4
20260503211046 80 40 4.3 5.2 0.00 0.00 0.00 38 1011.4
20260503210543 80 16 2.6 2.6 0.00 0.00 0.00 38 1010.9
20260503210038 80 73 3.5 5.2 0.00 0.00 0.00 38 1011.2
20260503205535 80 51 2.6 2.6 0.00 0.00 0.00 40 1011.5
20260503205032 80 77 0.9 1.7 0.00 0.00 0.00 41 1011.5
20260503204529 79 24 1.7 1.7 0.00 0.00 0.00 40 1011.2
20260503204026 79 17 3.5 4.3 0.00 0.00 0.00 40 1011.6
20260503203523 78 81 2.6 2.6 0.00 0.00 0.00 43 1011.7
20260503203020 78 23 2.6 5.2 0.00 0.00 0.00 44 1011.8
20260503202518 78 333 4.3 5.2 0.00 0.00 0.00 45 1011.6
20260503202016 77 17 1.7 1.7 0.00 0.00 0.00 46 1011.7
20260503201514 78 349 3.5 6.1 0.00 0.00 0.00 45 1011.7
20260503201011 78 24 0.9 0.9 0.00 0.00 0.00 47 1012.0
20260503200507 77 14 0.9 1.7 0.00 0.00 0.00 47 1011.7
20260503200004 77 20 2.6 4.3 0.00 0.00 0.00 46 1011.8
20260503195501 77 358 0.0 0.9 0.00 0.00 0.00 49 1012.0
20260503194957 77 16 4.3 6.1 0.00 0.00 0.00 45 1011.9
20260503194455 77 53 1.7 1.7 0.00 0.00 0.00 46 1012.3
20260503193949 77 7 6.1 7.0 0.00 0.00 0.00 46 1012.1
20260503193445 76 30 1.7 1.7 0.00 0.00 0.00 50 1012.2
20260503192941 77 46 0.9 1.7 0.00 0.00 0.00 48 1012.3
20260503192438 76 23 0.9 1.7 0.00 0.00 0.00 48 1012.5
20260503191933 76 39 0.9 0.9 0.00 0.00 0.00 48 1012.5
20260503191431 75 21 0.9 0.9 0.00 0.00 0.00 49 1012.4
20260503190927 76 10 3.5 4.3 0.00 0.00 0.00 49 1012.4
20260503190425 76 95 2.6 2.6 0.00 0.00 0.00 48 1012.6
20260503185922 74 6 1.7 1.7 0.00 0.00 0.00 50 1012.7
20260503185418 75 27 0.0 0.9 0.00 0.00 0.00 50 1012.8
20260503184917 75 23 2.6 4.3 0.00 0.00 0.00 49 1012.8
20260503184414 75 27 0.0 0.0 0.00 0.00 0.00 52 1012.8
20260503183910 73 0 3.5 4.3 0.00 0.00 0.00 50 1012.7
20260503183407 73 12 2.6 2.6 0.00 0.00 0.00 51 1012.9
20260503182904 73 45 2.6 5.2 0.00 0.00 0.00 50 1013.0
20260503182403 73 7 2.6 2.6 0.00 0.00 0.00 51 1012.8
20260503181900 72 23 2.6 5.2 0.00 0.00 0.00 51 1013.0
20260503181357 73 9 1.7 1.7 0.00 0.00 0.00 52 1013.0
20260503180853 72 19 0.9 0.9 0.00 0.00 0.00 52 1013.2
20260503180351 71 58 1.7 1.7 0.00 0.00 0.00 54 1013.1
20260503175847 71 22 5.2 7.0 0.00 0.00 0.00 54 1013.3
20260503175345 71 14 3.5 4.3 0.00 0.00 0.00 54 1013.0
20260503174841 71 11 3.5 4.3 0.00 0.00 0.00 54 1013.0
20260503174339 71 54 3.5 5.2 0.00 0.00 0.00 53 1013.0
20260503173834 70 28 3.5 4.3 0.00 0.00 0.00 54 1013.1
20260503173331 70 60 2.6 4.3 0.00 0.00 0.00 56 1013.2
20260503172828 70 19 4.3 5.2 0.00 0.00 0.00 56 1013.1
20260503172326 70 37 0.9 0.9 0.00 0.00 0.00 57 1012.8
20260503171821 70 26 1.7 1.7 0.00 0.00 0.00 57 1013.1
20260503171318 70 41 1.7 1.7 0.00 0.00 0.00 56 1013.1
20260503170816 69 21 2.6 2.6 0.00 0.00 0.00 57 1013.1
20260503170312 69 18 0.9 1.7 0.00 0.00 0.00 61 1013.3
20260503150704 60 25 1.7 1.7 0.00 0.00 0.00 69 1013.4
20260503150200 60 19 0.9 0.9 0.00 0.00 0.00 70 1013.4
20260503140125 58 20 1.7 1.7 0.00 0.00 0.00 72 1013.2
20260503131054 58 7 0.9 0.9 0.00 0.00 0.00 68 1012.9
20260503130551 58 25 0.9 0.9 0.00 0.00 0.00 68 1013.0
20260503110442 58 30 0.0 0.0 0.00 0.00 0.00 67 1013.4
20260503090327 55 37 0.0 0.9 0.00 0.00 0.00 78 1013.6
20260503081255 55 41 0.9 0.9 0.00 0.00 0.00 78 1013.7
20260503080750 55 39 0.0 0.9 0.00 0.00 0.00 80 1013.7
20260503080248 55 36 0.0 0.9 0.00 0.00 0.00 81 1013.5
20260503072725 54 27 0.0 0.0 0.00 0.00 0.00 80 1013.6
20260503072221 55 30 0.0 0.0 0.00 0.00 0.00 80 1013.6
20260503071718 55 26 0.0 0.0 0.00 0.00 0.00 77 1013.6
20260503071215 56 27 0.0 0.0 0.00 0.00 0.00 76 1013.4
20260503070712 57 29 0.0 0.0 0.00 0.00 0.00 75 1013.3
20260503070210 57 27 0.0 0.0 0.00 0.00 0.00 75 1013.5
20260503060134 58 27 0.0 0.0 0.00 0.00 0.00 69 1013.3
20260503055125 59 42 0.0 0.0 0.00 0.00 0.00 69 1013.2
20260503054621 59 33 0.0 0.0 0.00 0.00 0.00 68 1013.3
20260503054118 59 34 0.0 0.0 0.00 0.00 0.00 68 1013.2
20260503053616 59 27 0.0 0.0 0.00 0.00 0.00 67 1013.3
20260503053114 59 33 0.0 0.0 0.00 0.00 0.00 67 1013.4
20260503052610 60 31 0.0 0.0 0.00 0.00 0.00 66 1013.4
20260503052107 60 32 0.0 0.0 0.00 0.00 0.00 65 1013.2
20260503051602 60 28 0.0 0.0 0.00 0.00 0.00 64 1013.3
20260503051100 60 33 0.0 0.0 0.00 0.00 0.00 64 1013.1
20260503050556 60 40 0.0 0.9 0.00 0.00 0.00 64 1013.2
20260503050053 61 33 0.0 0.0 0.00 0.00 0.00 61 1013.2
20260503045550 62 28 0.0 0.0 0.00 0.00 0.00 59 1013.1
20260503045047 63 26 0.0 0.0 0.00 0.00 0.00 57 1013.1
20260503044544 63 30 0.0 0.0 0.00 0.00 0.00 57 1013.1
20260503044042 64 28 0.0 0.0 0.00 0.00 0.00 55 1012.9
20260503043538 64 26 0.0 0.0 0.00 0.00 0.00 55 1013.1
20260503043035 64 27 0.0 0.0 0.00 0.00 0.00 55 1013.0
20260503042532 64 29 0.0 0.0 0.00 0.00 0.00 54 1012.7
20260503042027 65 31 0.0 0.9 0.00 0.00 0.00 53 1012.8
20260503041525 65 39 0.0 0.0 0.00 0.00 0.00 54 1012.7
20260503041023 65 30 0.0 0.0 0.00 0.00 0.00 53 1012.6
20260503040520 65 27 0.0 0.9 0.00 0.00 0.00 53 1012.7
20260503040017 66 19 0.0 0.0 0.00 0.00 0.00 52 1012.6
20260503035514 66 15 0.9 1.7 0.00 0.00 0.00 51 1012.5
20260503035011 67 44 0.0 0.0 0.00 0.00 0.00 51 1012.4
20260503034508 67 71 1.7 1.7 0.00 0.00 0.00 50 1012.3
20260503034005 67 28 0.9 1.7 0.00 0.00 0.00 50 1012.5
20260503033502 67 52 0.0 0.0 0.00 0.00 0.00 50 1012.4
20260503033000 67 29 0.0 0.9 0.00 0.00 0.00 49 1012.3
20260503032459 68 31 0.9 0.9 0.00 0.00 0.00 48 1012.2
20260503031956 68 8 2.6 2.6 0.00 0.00 0.00 48 1012.2
20260503031454 68 65 0.9 0.9 0.00 0.00 0.00 48 1012.2
20260503030950 69 353 0.9 1.7 0.00 0.00 0.00 48 1012.3
20260503030446 69 5 1.7 1.7 0.00 0.00 0.00 47 1012.1
20260503025944 69 26 0.9 0.9 0.00 0.00 0.00 47 1012.0
20260503025440 70 13 1.7 1.7 0.00 0.00 0.00 46 1011.8
20260503024938 70 30 1.7 2.6 0.00 0.00 0.00 46 1011.7
20260503024434 71 60 0.9 0.9 0.00 0.00 0.00 46 1012.0
20260503023932 71 39 2.6 2.6 0.00 0.00 0.00 46 1011.9
20260503023429 72 30 0.9 1.7 0.00 0.00 0.00 45 1011.8
20260503022925 72 25 0.9 0.9 0.00 0.00 0.00 45 1011.9
20260503022420 72 28 2.6 2.6 0.00 0.00 0.00 45 1012.0
20260503021916 73 7 0.9 0.9 0.00 0.00 0.00 45 1011.9
20260503021412 73 43 0.9 0.9 0.00 0.00 0.00 45 1011.8
20260503020910 73 17 0.0 0.9 0.00 0.00 0.00 46 1012.0
20260503020408 73 18 0.9 0.9 0.00 0.00 0.00 45 1011.9
20260503015904 73 5 1.7 2.6 0.00 0.00 0.00 45 1012.0
20260503015401 74 28 1.7 2.6 0.00 0.00 0.00 44 1012.1
20260503014857 74 16 1.7 4.3 0.00 0.00 0.00 44 1012.1